User: anonymous   Login
Location: Chaumontel
(49.1247°N, 2.4324°E)
Time: 03:47:57
(UTC+00:00)
Language:

COSMOS 2428 - Orbit

View from above orbital plane
View from above orbital plane
View from above satellite
View from above satellite

Ground track
Ground track

The orbit data is extracted from the following two-line orbital elements,

1 31792U 07029A   24206.44356777 -.00000063  00000-0 -79097-5 0  9995
2 31792  70.9380   8.5905 0009956 347.4299  12.6572 14.12705343880307
Epoch (UTC): 24 July 2024 10:38:44
Eccentricity: 0.0009956
inclination: 70.9380°
perigee height: 843 km
apogee height: 857 km
right ascension of ascending node: 8.5905°
argument of perigee: 347.4299°
revolutions per day: 14.12705343
mean anomaly at epoch: 12.6572°
orbit number at epoch: 88030

The dashed part of the orbit path shows where the satellite is in the earth's shadow,  

DLR